Wind_Speed
19 21 23 26 29 31 32 34 36 36 37 39 38 44 54 51 64 59 52 46 50 48 50 47 45 43 45 47 47 50 57 50 45 41 39 30 39 40 38 34 33 33 33 36 36
23 25 26 28 29 29 30 32 36 38 40 40 41 42 42 45 52 64 60 56 53 56 54 53 57 53 51 50 53 56 58 55 44 43 47 36 42 31 29 35 29 42 35 36 35
25 26 27 29 30 32 33 35 36 37 38 39 41 45 45 46 46 49 67 66 60 58 54 56 60 66 66 58 57 57 62 53 50 48 49 48 47 48 45 43 32 38 40 36 30
28 30 31 33 35 37 38 39 40 40 39 41 43 43 44 49 51 53 50 71 66 65 63 59 62 65 68 64 63 65 61 59 56 57 54 53 48 46 48 41 38 36 42 38 35
28 29 30 31 33 35 38 40 41 43 44 45 45 45 46 45 44 58 60 58 69 72 67 70 72 70 68 65 61 61 56 62 60 58 60 56 55 51 49 45 41 40 41 43 44
25 27 28 30 31 33 35 37 40 42 45 47 48 49 48 47 53 53 57 62 64 66 67 69 72 73 76 71 68 64 70 66 68 66 61 60 59 56 52 44 43 44 43 43 49
24 25 26 28 30 33 36 39 41 42 43 46 47 50 50 52 55 55 57 57 59 62 64 64 65 66 71 78 77 74 75 77 72 68 64 60 59 56 43 42 40 42 45 49 47
25 27 29 32 36 39 40 42 43 45 47 49 50 50 50 57 57 57 56 57 59 60 59 60 62 63 64 66 67 68 69 68 61 63 62 59 57 44 42 46 44 43 46 44 41
28 30 32 34 37 41 45 48 50 51 53 55 58 57 57 58 59 60 60 60 61 61 63 65 66 63 62 62 62 62 64 62 54 52 61 64 50 45 45 43 42 41 39 39 36
31 33 36 38 41 44 47 48 53 55 61 65 65 62 66 67 64 63 63 64 64 64 65 67 68 66 64 63 63 59 56 55 54 49 49 53 51 44 41 40 41 38 30 32 30
34 36 38 42 45 47 51 55 59 65 70 74 74 75 72 70 71 69 69 66 67 68 68 69 70 64 55 57 59 59 59 56 52 49 48 44 46 42 37 37 37 33 30 30 32
34 37 40 43 45 48 51 58 65 69 70 66 69 64 75 68 70 72 73 70 70 70 72 72 64 56 60 66 62 59 58 53 54 53 49 47 45 45 37 35 35 29 30 33 26
35 37 41 43 46 51 57 62 64 52 41 20 15 16 25 49 52 55 61 67 69 71 72 70 61 62 64 64 64 62 60 54 54 51 48 51 48 41 34 32 30 31 29 30 25
35 38 40 43 45 50 55 51 47 37 15 25 16 12 15 17 21 36 53 60 63 66 66 68 62 65 67 65 65 63 60 58 56 53 51 47 49 41 30 30 32 29 30 25 17
36 38 40 43 46 49 49 45 40 38 33 29 27 22 19 9 5 14 27 43 48 53 60 58 64 64 65 64 65 59 60 61 61 57 55 51 49 25 31 30 26 28 27 16 16
37 38 41 44 46 48 45 42 37 34 32 31 29 30 18 14 13 17 18 16 29 40 54 56 57 60 61 61 63 60 62 64 61 58 61 46 46 24 24 20 22 21 17 16 15
37 37 40 44 45 47 44 38 33 30 29 32 29 26 26 19 15 16 27 19 17 16 31 45 46 53 56 60 61 62 63 62 62 65 53 46 46 20 15 16 26 21 18 14 15
36 38 39 43 46 45 42 36 30 30 30 28 20 22 23 23 13 16 24 24 9 16 22 24 31 48 51 56 59 61 60 61 61 60 53 52 50 32 16 23 14 18 17 12 14
34 37 37 39 43 44 42 35 32 30 27 29 29 16 16 16 20 13 20 14 17 16 20 22 25 34 42 50 58 56 62 57 61 59 58 52 47 40 25 26 8 12 8 5 9
31 36 37 38 40 45 40 32 30 28 28 25 24 17 12 7 12 13 11 14 18 23 24 26 26 23 26 45 55 55 55 56 60 59 59 52 48 41 28 28 21 18 9 10 15
33 33 35 36 40 42 40 32 26 27 29 26 24 16 11 9 7 12 11 10 9 23 24 20 19 26 33 35 46 53 55 56 59 60 56 51 49 42 25 23 19 19 8 10 7
37 33 34 37 38 41 40 36 27 26 27 24 20 13 10 10 8 10 11 14 17 16 17 21 21 20 25 42 42 49 57 59 61 60 56 52 48 30 34 30 24 17 10 8 2
36 35 34 37 39 38 39 32 31 23 24 17 15 13 10 12 12 11 4 10 15 15 12 12 19 15 12 38 45 49 56 61 60 60 57 53 37 32 28 26 19 16 13 5 7
39 33 32 33 38 39 42 33 25 22 21 13 12 11 8 9 15 15 16 12 12 11 11 13 14 16 11 28 48 47 54 62 60 61 55 54 36 40 30 28 26 19 13 10 9
39 33 33 31 31 34 38 39 29 16 17 18 11 12 8 10 16 21 27 26 18 19 20 14 8 6 7 24 44 46 49 65 65 61 60 55 45 41 35 28 18 15 15 11 10
40 33 30 28 31 33 36 38 35 18 16 15 15 16 16 17 19 15 22 25 22 17 13 12 4 11 5 13 36 48 43 61 66 62 62 57 52 39 29 33 24 20 17 14 16
38 36 34 30 29 30 34 38 36 18 17 17 17 18 20 22 25 19 15 10 15 12 11 12 12 8 6 6 23 43 40 56 64 61 61 59 54 35 35 37 33 28 26 17 16
Wind_Direction
269 267 264 260 257 256 257 260 259 256 255 255 252 249 247 245 232 237 239 240 235 235 234 226 231 241 243 242 242 242 243 242 242 245 235 243 248 243 248 236 251 243 249 260 264
276 275 273 271 268 264 261 257 255 256 256 250 249 251 252 250 245 237 243 241 239 238 237 237 240 246 246 243 243 244 246 247 247 247 243 240 257 253 243 255 241 267 243 243 262
283 282 279 278 276 274 272 268 263 260 259 258 256 250 247 251 249 245 242 238 240 242 241 241 241 243 247 244 247 249 250 256 250 251 251 257 258 277 254 262 277 269 253 261 269
285 284 282 280 279 278 277 276 274 270 265 262 258 255 252 243 244 245 246 238 241 245 247 246 245 244 248 249 253 253 253 258 261 257 255 259 265 258 265 269 269 263 267 269 266
294 293 290 288 285 283 282 280 277 276 275 272 265 260 257 253 249 248 241 238 240 243 248 248 247 246 246 244 246 254 250 254 257 259 260 258 257 259 256 257 263 270 264 269 274
297 296 294 293 291 287 283 279 276 274 273 271 269 267 262 257 250 248 247 241 239 240 243 245 247 243 241 243 244 252 256 256 258 263 260 255 262 262 262 263 268 269 268 271 269
294 292 292 291 289 289 288 286 283 280 275 270 264 263 263 258 255 252 248 248 246 244 244 246 246 246 245 245 248 252 253 255 259 261 259 259 258 260 276 274 270 269 266 265 266
305 304 302 301 302 298 294 291 287 284 281 278 273 266 259 255 254 251 250 248 248 248 246 245 245 245 247 247 249 253 253 254 259 260 260 255 261 267 270 271 270 272 270 266 265
310 308 306 305 302 298 295 290 285 283 281 278 275 271 264 259 254 252 249 247 246 244 243 244 244 242 242 245 248 249 251 255 257 257 259 257 258 264 263 267 269 269 269 267 269
309 307 306 306 302 297 292 289 285 282 276 274 272 266 263 259 254 250 248 245 244 243 242 241 243 243 242 242 246 252 257 255 257 256 255 258 262 267 264 260 259 261 257 260 266
310 309 309 307 305 302 301 298 296 290 290 284 274 267 263 257 253 249 247 245 243 242 240 241 241 242 247 249 245 248 249 250 252 256 256 258 265 261 258 254 251 253 256 264 259
317 315 312 310 309 308 306 306 306 303 292 286 276 268 260 257 250 246 246 244 242 242 242 241 241 242 240 242 243 243 247 245 250 254 258 258 256 259 248 246 255 259 259 258 266
318 318 317 318 320 320 321 325 330 332 321 297 303 289 264 252 248 241 240 237 236 236 237 239 239 237 238 238 240 240 241 243 248 251 249 256 253 253 249 247 253 257 255 255 263
323 324 325 329 331 333 337 339 336 329 322 337 322 299 281 271 254 234 232 232 231 233 234 235 235 235 235 236 236 237 241 241 244 246 249 251 254 250 243 240 241 246 249 256 263
328 327 329 333 335 338 337 337 333 331 309 319 325 312 346 339 258 228 231 231 228 231 229 230 230 229 230 232 235 235 235 238 240 242 246 248 254 236 242 237 240 243 256 252 252
330 329 331 334 337 338 338 335 331 329 326 309 310 307 311 321 284 247 205 235 241 232 226 221 224 224 226 227 229 230 232 233 235 239 241 240 251 235 236 233 230 241 241 235 254
329 328 331 334 338 340 338 332 329 327 320 322 313 309 294 298 298 261 248 221 198 223 221 223 222 222 222 223 226 226 228 230 232 234 238 236 242 239 214 227 238 237 230 243 260
329 327 331 335 338 341 337 336 334 327 329 330 327 304 308 277 282 271 242 241 231 194 198 211 215 218 219 218 222 221 224 228 230 234 235 235 237 232 209 233 224 225 235 257 267
331 327 332 338 339 338 345 338 335 331 331 329 329 346 321 276 279 266 247 246 255 245 225 224 209 215 217 217 217 218 221 223 227 229 228 229 231 232 210 233 210 237 240 228 262
331 325 331 337 337 343 350 341 336 332 334 325 328 326 313 275 289 266 252 242 243 244 248 254 241 220 221 219 215 213 217 216 221 221 227 224 226 224 208 237 230 235 239 236 255
339 330 330 334 338 350 349 347 346 340 338 337 331 317 316 308 298 284 260 238 241 252 261 253 258 223 224 226 215 211 211 214 216 220 221 223 222 220 211 215 223 234 199 240 239
344 336 336 337 344 352 351 348 346 351 342 338 330 319 307 281 297 291 266 275 253 264 265 255 262 245 227 218 210 216 206 210 212 217 217 220 216 218 212 219 235 229 193 228 285
347 341 338 338 346 355 355 349 343 334 339 339 331 324 295 266 287 274 301 296 278 266 268 245 259 256 263 217 207 213 209 206 210 211 212 215 195 194 177 179 197 183 198 235 293
351 345 338 338 345 352 356 353 348 340 354 351 341 329 310 284 288 252 276 268 254 283 260 257 268 278 261 206 212 205 209 202 207 207 208 209 190 186 183 195 190 187 206 241 252
353 348 344 344 344 351 357 355 352 357 359 6 342 319 297 306 283 275 271 275 256 260 272 253 239 258 252 218 214 204 209 199 205 205 206 208 185 174 172 182 187 187 201 216 233
352 351 343 343 344 349 356 359 357 345 347 350 347 344 335 324 322 296 276 271 258 253 230 228 261 290 200 228 215 207 202 203 203 203 204 204 181 170 178 184 189 204 208 208 210
353 354 350 346 342 348 355 357 360 1 342 343 336 343 338 335 344 328 304 261 226 216 240 231 249 254 183 207 212 210 203 203 201 202 202 203 176 175 190 191 199 191 217 201 207
Height
5792 5792 5793 5793 5793 5793 5794 5794 5795 5798 5800 5801 5802 5803 5805 5807 5811 5813 5821 5826 5824 5826 5829 5832 5835 5836 5837 5841 5844 5843 5839 5847 5855 5860 5867 5855 5854 5862 5865 5867 5865 5865 5867 5863 5862
5788 5788 5787 5787 5788 5788 5788 5788 5788 5788 5789 5791 5792 5793 5795 5797 5802 5805 5811 5811 5815 5815 5820 5823 5826 5824 5827 5831 5831 5831 5833 5840 5851 5852 5856 5855 5846 5857 5859 5859 5862 5860 5859 5859 5860
5783 5782 5782 5781 5780 5780 5780 5780 5780 5780 5780 5780 5780 5781 5785 5787 5792 5793 5794 5800 5804 5803 5809 5811 5814 5813 5816 5820 5822 5825 5825 5836 5842 5843 5845 5848 5848 5844 5848 5851 5855 5856 5855 5856 5857
5776 5775 5774 5773 5772 5771 5770 5770 5769 5770 5771 5771 5771 5772 5773 5778 5780 5781 5782 5785 5790 5791 5795 5800 5801 5803 5806 5808 5816 5814 5820 5822 5830 5834 5834 5836 5842 5841 5839 5842 5847 5848 5845 5850 5853
5770 5769 5767 5766 5765 5763 5762 5760 5759 5758 5758 5758 5760 5761 5763 5766 5771 5761 5766 5771 5775 5778 5781 5784 5788 5791 5793 5799 5802 5804 5814 5809 5815 5821 5824 5826 5825 5829 5832 5836 5838 5839 5840 5841 5840
5764 5762 5760 5758 5756 5754 5753 5751 5750 5749 5748 5748 5747 5748 5752 5756 5748 5751 5751 5758 5760 5764 5767 5768 5773 5776 5778 5784 5787 5798 5795 5801 5803 5807 5812 5813 5816 5819 5823 5831 5832 5832 5833 5833 5832
5758 5755 5753 5751 5748 5746 5743 5740 5739 5737 5736 5735 5735 5735 5739 5738 5736 5740 5739 5742 5745 5749 5753 5755 5755 5757 5766 5771 5777 5780 5780 5784 5792 5797 5799 5804 5800 5805 5820 5820 5820 5821 5823 5822 5822
5751 5748 5746 5742 5739 5736 5732 5729 5727 5724 5721 5720 5719 5720 5724 5717 5721 5721 5725 5729 5731 5734 5738 5740 5741 5746 5751 5758 5763 5765 5767 5772 5784 5788 5790 5791 5785 5807 5809 5808 5809 5808 5807 5809 5812
5745 5741 5738 5734 5730 5725 5721 5718 5713 5710 5706 5702 5700 5701 5701 5701 5701 5704 5708 5711 5713 5718 5722 5722 5724 5734 5740 5745 5749 5752 5758 5763 5776 5779 5779 5778 5778 5792 5795 5798 5796 5797 5799 5801 5802
5738 5734 5729 5725 5721 5715 5710 5704 5697 5694 5687 5678 5679 5684 5679 5677 5683 5687 5688 5690 5695 5698 5704 5706 5710 5718 5728 5734 5738 5747 5754 5756 5758 5767 5767 5766 5765 5779 5784 5786 5785 5787 5791 5792 5793
5731 5726 5721 5715 5709 5703 5696 5690 5684 5677 5662 5648 5653 5654 5655 5652 5661 5665 5666 5674 5677 5681 5685 5687 5692 5710 5729 5730 5729 5732 5735 5740 5748 5752 5754 5759 5758 5765 5771 5772 5773 5778 5781 5785 5783
5723 5717 5711 5705 5699 5692 5683 5673 5660 5647 5642 5615 5617 5615 5619 5622 5636 5643 5646 5653 5657 5662 5665 5672 5688 5707 5708 5704 5714 5720 5724 5734 5737 5740 5746 5748 5748 5751 5760 5763 5763 5770 5775 5776 5778
5716 5710 5702 5695 5687 5677 5666 5654 5640 5629 5615 5606 5602 5600 5598 5599 5606 5616 5619 5624 5631 5638 5645 5657 5680 5685 5684 5692 5699 5707 5712 5724 5725 5730 5736 5733 5736 5745 5753 5755 5760 5759 5766 5766 5769
5709 5701 5694 5686 5679 5667 5655 5645 5637 5629 5619 5614 5604 5602 5595 5591 5591 5596 5600 5605 5611 5621 5628 5645 5661 5663 5667 5677 5682 5693 5704 5710 5713 5719 5723 5727 5723 5734 5746 5749 5750 5755 5755 5759 5760
5701 5693 5687 5677 5669 5659 5650 5640 5633 5625 5616 5611 5604 5598 5594 5592 5590 5589 5590 5591 5601 5605 5611 5639 5637 5640 5652 5663 5668 5687 5689 5695 5701 5708 5712 5718 5720 5731 5737 5739 5746 5748 5751 5753 5752
5694 5687 5678 5670 5662 5653 5643 5635 5626 5620 5610 5604 5599 5593 5594 5591 5589 5585 5590 5590 5592 5594 5603 5613 5613 5623 5639 5646 5656 5670 5676 5680 5690 5696 5695 5715 5718 5720 5730 5736 5738 5740 5742 5744 5745
5688 5680 5672 5663 5655 5646 5637 5630 5621 5613 5607 5600 5593 5588 5586 5586 5586 5587 5583 5586 5588 5589 5596 5596 5602 5616 5623 5636 5643 5653 5660 5667 5678 5679 5696 5709 5709 5718 5725 5729 5728 5732 5736 5738 5738
5683 5674 5667 5658 5648 5640 5633 5623 5614 5607 5600 5593 5587 5583 5580 5578 5580 5582 5583 5582 5581 5583 5587 5590 5598 5608 5612 5621 5629 5636 5647 5656 5667 5674 5690 5697 5696 5708 5722 5719 5723 5728 5731 5734 5733
5677 5669 5663 5655 5645 5636 5626 5615 5607 5600 5595 5587 5584 5578 5576 5574 5574 5577 5578 5579 5578 5580 5583 5583 5590 5595 5601 5610 5616 5627 5634 5652 5655 5663 5674 5685 5693 5702 5715 5714 5720 5723 5727 5728 5730
5673 5663 5658 5651 5642 5630 5620 5613 5604 5596 5591 5585 5579 5576 5573 5572 5573 5572 5573 5576 5575 5576 5579 5582 5587 5594 5595 5594 5605 5619 5630 5634 5644 5652 5662 5677 5683 5692 5709 5710 5713 5716 5721 5725 5724
5668 5659 5653 5647 5638 5626 5616 5609 5602 5593 5588 5582 5576 5572 5571 5570 5570 5569 5571 5572 5571 5573 5575 5576 5576 5585 5584 5589 5602 5610 5616 5624 5633 5643 5657 5669 5677 5688 5704 5707 5709 5711 5716 5719 5718
5662 5655 5647 5640 5634 5623 5613 5603 5598 5592 5585 5579 5574 5571 5568 5568 5568 5567 5567 5568 5570 5571 5572 5571 5570 5571 5577 5581 5588 5594 5604 5612 5619 5636 5650 5660 5671 5689 5694 5698 5703 5707 5710 5714 5714
5658 5650 5642 5635 5627 5621 5611 5602 5594 5588 5583 5578 5574 5570 5567 5566 5566 5564 5565 5565 5566 5567 5567 5566 5565 5567 5571 5574 5581 5583 5594 5603 5613 5627 5641 5653 5672 5679 5686 5691 5696 5702 5705 5707 5710
5655 5646 5639 5631 5623 5615 5608 5601 5595 5587 5581 5576 5573 5569 5567 5566 5563 5563 5562 5563 5563 5562 5561 5561 5563 5563 5566 5565 5568 5575 5582 5595 5605 5619 5636 5646 5664 5671 5680 5687 5689 5697 5702 5705 5708
5652 5643 5634 5628 5623 5614 5606 5597 5590 5585 5580 5575 5572 5569 5566 5564 5561 5559 5557 5556 5558 5558 5557 5558 5559 5557 5557 5559 5559 5569 5577 5586 5596 5613 5625 5640 5658 5665 5675 5679 5685 5691 5698 5702 5705
5649 5641 5634 5626 5619 5612 5605 5597 5588 5581 5578 5575 5572 5569 5564 5560 5557 5554 5549 5549 5550 5552 5553 5554 5554 5552 5553 5555 5558 5565 5573 5579 5590 5602 5616 5631 5651 5659 5662 5669 5677 5684 5693 5699 5702
5647 5638 5630 5624 5617 5612 5603 5595 5587 5580 5576 5572 5569 5566 5562 5558 5552 5546 5540 5540 5544 5549 5551 5551 5551 5550 5551 5553 5557 5563 5569 5576 5587 5599 5613 5627 5646 5652 5654 5664 5670 5676 5689 5696 5699